Regional Weather Roundup
Issued by NWS Cleveland, OH

Home | Current Version | Previous Version | Text Only | Print | Product List | Glossary Off
Versions: 1 2 3 4 5 6 7 8 9 10 11 12 13 14 15 16 17 18 19 20 21 22 23 24 25 26 27 28 29 30 31 32 33 34 35 36 37 38 39 40 41 42 43 44 45 46 47 48 49 50

179
ASUS41 KCLE 202210
RWRCLE
OHIO REGIONAL WEATHER ROUNDUP
NATIONAL WEATHER SERVICE CLEVELAND, OH
600 PM EDT THU JUL 20 2017

NOTE: "FAIR" INDICATES FEW OR NO CLOUDS BELOW 12,000 FEET WITH NO
SIGNIFICANT WEATHER AND/OR OBSTRUCTIONS TO VISIBILITY.

OHZ001>008-015>018-024>027-034-035-043-044-202300-
   NORTHWEST OHIO

CITY           SKY/WX    TMP DP  RH WIND       PRES   REMARKS
DEFIANCE       CLOUDY   N/A N/A N/A SW5       29.98S
FINDLAY        MOSUNNY   85  68  56 W12       29.98S
TOLEDO EXPRESS MOSUNNY   84  71  65 CALM      29.96S
TOLEDO EXEC    CLOUDY    86  71  60 CALM      29.96F HX  91
LIMA           PTSUNNY   82  71  69 W8        30.00F
$$

OHZ009>014-019>023-028>033-038-089-202300-
   NORTHEAST OHIO

CITY           SKY/WX    TMP DP  RH WIND       PRES   REMARKS
CLE-HOPKINS    CLOUDY    87  67  51 W9        29.98F HX  90
CLE-LAKEFRONT  CLOUDY    82  71  69 W5        29.95F
CUY CO. ARPT   MOSUNNY   84  66  54 W12       29.99F
LORAIN-ELYRIA  CLOUDY    83  66  56 NW6       29.98F
ASHTABULA      CLOUDY    83  69  62 W9        29.97F
AKRON-CANTON   PTSUNNY   87  66  49 N13       29.99S
WOOSTER        MOSUNNY   84  71  65 NW7       29.99F
MANSFIELD      PTSUNNY   84  71  65 W6        30.00F
YOUNGSTOWN     CLOUDY    83  68  60 W10       29.98S
$$

OHZ042-051>053-060>062-070>072-077>081-202300-
  SOUTHWEST OHIO

CITY           SKY/WX    TMP DP  RH WIND       PRES   REMARKS
CINC-COVINGTON PTSUNNY   89  76  65 SW8       30.02F HX 100
CINC-LUNKEN    CLOUDY    89  76  65 SW13      30.00S HX 100
HAMILTON       MOSUNNY   87  77  72 VRB3      30.01F HX  99
DAYTON         PTSUNNY   83  73  72 W8        30.02F
WRIGHT-PAT AFB PTSUNNY   86  75  69 SW9       30.01F HX  94
DAYTON GENERAL CLOUDY    86  74  67 W9        30.02S HX  94
WILMINGTON     MOSUNNY   85  78  80 W10       30.02F HX  96
$$

OHZ036-037-039>041-045>050-054>059-063>069-073>076-082>088-202300-
  CENTRAL AND SOUTHEAST OHIO

CITY           SKY/WX    TMP DP  RH WIND       PRES   REMARKS
COLUMBUS       CLOUDY    85  76  74 W9        29.99F HX  94
OSU AIRPORT    PTSUNNY   84  76  76 W14G20    30.00F HX  93
BOLTON FIELD   MOSUNNY   84  73  70 W12       30.01F HX  91
RICKENBACK AFB CLOUDY    80  73  78 SW7       30.01S
NEWARK         PTSUNNY   85  73  67 W14       30.00R HX  91
MARION         MOSUNNY   84  69  60 W13       30.00F
LANCASTER      CLOUDY    82  75  79 W13       30.02R
ZANESVILLE     PTSUNNY   85  73  67 SW6       29.99F HX  91
NEW PHILLY     NOT AVBL
$$




USA.gov is the U.S. government's official web portal to all federal, state and local government web resources and services.